When you browse on this site, cookies collect data to enhance your experience and personalize the content and advertising you see.
Visit our Privacy Policy to learn more. By continuing to use the site, you agree to this use of cookies and data.
  • In Schweiz
  • Länderverzeichnis
  • Für 7 Tage
  • Wassertemperatur
  • Wetterkarte
  • Widgets
  • user-avatar
    Anmelden

    Stündliche Wetter Gloucester

    Heute, 23 September, Montag

    Zeit Temperatur Niederschläge Wind Luftdruck Luftfeuchtigkeit
    00:00 +12°C° 0 mm 3 m/S 748 mmHg 96%
    01:00 +12°C° 0 mm 3 m/S 749 mmHg 96%
    02:00 +12°C° 0 mm 3 m/S 749 mmHg 95%
    03:00 +12°C° 0 mm 3 m/S 749 mmHg 95%
    04:00 +12°C° 0 mm 3 m/S 749 mmHg 95%
    05:00 +12°C° 0 mm 3 m/S 750 mmHg 94%
    06:00 +12°C° 0 mm 2 m/S 751 mmHg 94%
    07:00 +12°C° 0 mm 3 m/S 751 mmHg 90%
    08:00 +14°C° 0 mm 4 m/S 751 mmHg 86%
    09:00 +15°C° 0 mm 5 m/S 751 mmHg 81%
    10:00 +16°C° 0 mm 5 m/S 751 mmHg 75%
    11:00 +17°C° 0 mm 6 m/S 751 mmHg 70%
    12:00 +19°C° 0 mm 6 m/S 750 mmHg 64%
    13:00 +17°C° 0.4 mm 7 m/S 750 mmHg 71%
    14:00 +16°C° 0.4 mm 7 m/S 749 mmHg 78%
    15:00 +15°C° 0.4 mm 7 m/S 749 mmHg 86%
    16:00 +15°C° 0.9 mm 7 m/S 748 mmHg 88%
    17:00 +15°C° 0.9 mm 7 m/S 748 mmHg 91%
    18:00 +15°C° 0.9 mm 6 m/S 748 mmHg 93%
    19:00 +15°C° 0.1 mm 6 m/S 748 mmHg 94%
    20:00 +16°C° 0.1 mm 5 m/S 748 mmHg 95%
    21:00 +17°C° 0.1 mm 4 m/S 748 mmHg 95%
    22:00 +17°C° 0.1 mm 4 m/S 748 mmHg 95%
    23:00 +17°C° 0.1 mm 4 m/S 747 mmHg 95%

    Morgen, 24 September, Dienstag

    Zeit Temperatur Niederschläge Wind Luftdruck Luftfeuchtigkeit
    00:00 +15°C° 0.1 mm 4 m/S 747 mmHg 95%
    01:00 +15°C° 0.2 mm 4 m/S 746 mmHg 95%
    02:00 +16°C° 0.2 mm 3 m/S 746 mmHg 96%
    03:00 +16°C° 0.2 mm 3 m/S 745 mmHg 96%
    04:00 +16°C° 2.6 mm 3 m/S 745 mmHg 96%
    05:00 +15°C° 2.6 mm 4 m/S 744 mmHg 96%
    06:00 +17°C° 2.6 mm 4 m/S 744 mmHg 95%
    07:00 +17°C° 1.2 mm 4 m/S 743 mmHg 94%
    08:00 +17°C° 1.2 mm 3 m/S 743 mmHg 92%
    09:00 +17°C° 1.2 mm 3 m/S 743 mmHg 90%
    10:00 +17°C° 0.7 mm 5 m/S 743 mmHg 85%
    11:00 +17°C° 0.7 mm 6 m/S 743 mmHg 80%
    12:00 +18°C° 0.7 mm 7 m/S 743 mmHg 75%
    13:00 +18°C° 0.1 mm 7 m/S 743 mmHg 74%
    14:00 +18°C° 0.1 mm 7 m/S 743 mmHg 72%
    15:00 +18°C° 0.1 mm 7 m/S 744 mmHg 71%
    16:00 +17°C° 0.1 mm 6 m/S 744 mmHg 76%
    17:00 +15°C° 0.1 mm 6 m/S 744 mmHg 81%
    18:00 +14°C° 0.1 mm 5 m/S 743 mmHg 86%
    19:00 +14°C° 0.3 mm 5 m/S 743 mmHg 89%
    20:00 +14°C° 0.3 mm 5 m/S 743 mmHg 91%
    21:00 +13°C° 0.3 mm 5 m/S 743 mmHg 93%
    22:00 +14°C° 0.6 mm 5 m/S 743 mmHg 93%
    23:00 +14°C° 0.6 mm 5 m/S 742 mmHg 93%

    übermorgen, 25 September, Mittwoch

    Zeit Temperatur Niederschläge Wind Luftdruck Luftfeuchtigkeit
    00:00 +14°C° 0.6 mm 6 m/S 741 mmHg 94%
    01:00 +14°C° 0.3 mm 5 m/S 741 mmHg 94%
    02:00 +14°C° 0.3 mm 5 m/S 741 mmHg 94%
    03:00 +14°C° 0.3 mm 5 m/S 740 mmHg 94%
    04:00 +14°C° 0.2 mm 4 m/S 740 mmHg 94%
    05:00 +14°C° 0.2 mm 4 m/S 741 mmHg 94%
    06:00 +14°C° 0.2 mm 3 m/S 741 mmHg 95%
    07:00 +15°C° 0.2 mm 4 m/S 741 mmHg 92%
    08:00 +15°C° 0.2 mm 5 m/S 742 mmHg 89%
    09:00 +16°C° 0.2 mm 6 m/S 743 mmHg 86%
    10:00 +16°C° 0.1 mm 6 m/S 743 mmHg 83%
    11:00 +17°C° 0.1 mm 5 m/S 744 mmHg 79%
    12:00 +17°C° 0.1 mm 5 m/S 745 mmHg 76%
    13:00 +19°C° 0.3 mm 5 m/S 745 mmHg 76%
    14:00 +19°C° 0.3 mm 5 m/S 745 mmHg 76%
    15:00 +19°C° 0.3 mm 5 m/S 746 mmHg 76%
    16:00 +17°C° 0.1 mm 5 m/S 746 mmHg 80%
    17:00 +17°C° 0.1 mm 4 m/S 746 mmHg 85%
    18:00 +15°C° 0.1 mm 4 m/S 746 mmHg 89%
    19:00 +14°C° 0 mm 3 m/S 747 mmHg 91%
    20:00 +14°C° 0 mm 3 m/S 747 mmHg 93%
    21:00 +14°C° 0 mm 3 m/S 747 mmHg 95%
    22:00 +14°C° 0 mm 4 m/S 747 mmHg 95%
    23:00 +15°C° 0 mm 4 m/S 747 mmHg 95%

    26 September, Donnerstag

    Zeit Temperatur Niederschläge Wind Luftdruck Luftfeuchtigkeit
    00:00 +15°C° 0 mm 5 m/S 746 mmHg 94%
    01:00 +15°C° 0.2 mm 5 m/S 746 mmHg 95%
    02:00 +16°C° 0.2 mm 6 m/S 746 mmHg 95%
    03:00 +16°C° 0.2 mm 6 m/S 746 mmHg 95%
    04:00 +16°C° 0.6 mm 6 m/S 746 mmHg 95%
    05:00 +16°C° 0.6 mm 6 m/S 746 mmHg 95%
    06:00 +16°C° 0.6 mm 6 m/S 746 mmHg 94%
    07:00 +16°C° 0.7 mm 6 m/S 746 mmHg 92%
    08:00 +16°C° 0.7 mm 6 m/S 746 mmHg 89%
    09:00 +16°C° 0.7 mm 5 m/S 747 mmHg 86%
    10:00 +16°C° 0.1 mm 6 m/S 747 mmHg 81%
    11:00 +16°C° 0.1 mm 6 m/S 747 mmHg 76%
    12:00 +17°C° 0.1 mm 6 m/S 748 mmHg 71%
    13:00 +17°C° 0.1 mm 6 m/S 747 mmHg 70%
    14:00 +16°C° 0.1 mm 6 m/S 747 mmHg 70%
    15:00 +16°C° 0.1 mm 7 m/S 747 mmHg 69%
    16:00 +15°C° 0 mm 6 m/S 748 mmHg 74%
    17:00 +14°C° 0 mm 5 m/S 748 mmHg 78%
    18:00 +13°C° 0 mm 4 m/S 748 mmHg 82%
    19:00 +12°C° 0 mm 4 m/S 748 mmHg 83%
    20:00 +12°C° 0 mm 4 m/S 749 mmHg 85%
    21:00 +11°C° 0 mm 4 m/S 749 mmHg 87%
    22:00 +11°C° 0 mm 4 m/S 749 mmHg 87%
    23:00 +12°C° 0 mm 5 m/S 749 mmHg 87%

    27 September, Freitag

    Zeit Temperatur Niederschläge Wind Luftdruck Luftfeuchtigkeit
    00:00 +12°C° 0 mm 5 m/S 749 mmHg 87%
    01:00 +12°C° 0.1 mm 5 m/S 749 mmHg 87%
    02:00 +12°C° 0.1 mm 5 m/S 749 mmHg 88%
    03:00 +10°C° 0.1 mm 5 m/S 749 mmHg 88%
    04:00 +12°C° 0.1 mm 5 m/S 748 mmHg 87%
    05:00 +12°C° 0.1 mm 5 m/S 748 mmHg 87%
    06:00 +12°C° 0.1 mm 5 m/S 748 mmHg 87%
    07:00 +11°C° 0.3 mm 6 m/S 748 mmHg 87%
    08:00 +13°C° 0.3 mm 6 m/S 748 mmHg 88%
    09:00 +12°C° 0.3 mm 7 m/S 748 mmHg 88%
    10:00 +14°C° 0.4 mm 7 m/S 748 mmHg 84%
    11:00 +15°C° 0.4 mm 8 m/S 748 mmHg 80%
    12:00 +16°C° 0.4 mm 8 m/S 748 mmHg 76%
    13:00 +15°C° 0.3 mm 8 m/S 748 mmHg 75%
    14:00 +15°C° 0.3 mm 8 m/S 748 mmHg 74%
    15:00 +15°C° 0.3 mm 8 m/S 748 mmHg 74%
    16:00 +13°C° 0.1 mm 8 m/S 748 mmHg 76%
    17:00 +14°C° 0.1 mm 7 m/S 748 mmHg 79%
    18:00 +13°C° 0.1 mm 6 m/S 748 mmHg 81%
    19:00 +11°C° 0.1 mm 6 m/S 749 mmHg 83%
    20:00 +11°C° 0.1 mm 6 m/S 749 mmHg 85%
    21:00 +12°C° 0.1 mm 5 m/S 750 mmHg 87%
    22:00 +12°C° 0 mm 5 m/S 750 mmHg 87%
    23:00 +12°C° 0 mm 5 m/S 750 mmHg 87%

    28 September, Samstag

    Zeit Temperatur Niederschläge Wind Luftdruck Luftfeuchtigkeit
    00:00 +11°C° 0 mm 6 m/S 750 mmHg 86%
    01:00 +12°C° 0.1 mm 5 m/S 750 mmHg 87%
    02:00 +12°C° 0.1 mm 5 m/S 750 mmHg 88%
    03:00 +12°C° 0.1 mm 5 m/S 750 mmHg 89%
    04:00 +12°C° 0.2 mm 5 m/S 750 mmHg 89%
    05:00 +12°C° 0.2 mm 5 m/S 750 mmHg 88%
    06:00 +11°C° 0.2 mm 6 m/S 750 mmHg 87%
    07:00 +13°C° 0.1 mm 6 m/S 750 mmHg 86%
    08:00 +12°C° 0.1 mm 7 m/S 750 mmHg 84%
    09:00 +14°C° 0.1 mm 7 m/S 751 mmHg 83%
    10:00 +14°C° 0.3 mm 7 m/S 751 mmHg 81%
    11:00 +14°C° 0.3 mm 7 m/S 751 mmHg 80%
    12:00 +15°C° 0.3 mm 8 m/S 751 mmHg 79%
    13:00 +15°C° 0.1 mm 7 m/S 750 mmHg 79%
    14:00 +15°C° 0.1 mm 7 m/S 750 mmHg 79%
    15:00 +15°C° 0.1 mm 7 m/S 750 mmHg 78%
    16:00 +14°C° 0 mm 7 m/S 750 mmHg 80%
    17:00 +14°C° 0 mm 6 m/S 750 mmHg 81%
    18:00 +13°C° 0 mm 5 m/S 750 mmHg 82%
    19:00 +13°C° 0.1 mm 5 m/S 750 mmHg 84%
    20:00 +12°C° 0.1 mm 5 m/S 750 mmHg 85%
    21:00 +12°C° 0.1 mm 5 m/S 750 mmHg 87%
    22:00 +12°C° 0.2 mm 5 m/S 749 mmHg 88%
    23:00 +12°C° 0.2 mm 5 m/S 749 mmHg 90%
    Mehr zeigen